Skip Page Navigation
NASA JPL Caltech
NASA Logo - Jet Propulsion Laboratory + View the NASA Portal
+ Center for Near-Earth Object Studies
JPL Home Earth Solar System Stars & Galaxies Technology
JPL Solar System Dynamics
BODIES ORBITS EPHEMERIDES TOOLS PHYSICAL DATA DISCOVERY FAQ SITE MAP
IMPORTANT: The SSD Announcement email list is now available. Major changes are coming in the near future, including possible hostname and/or URL changes. To be notified of such changes, subscribe to this email list.

Please visit this page for more details.


JPL Small-Body Database Browser
Search: [ help ]  
125 Liberatrix
Classification: Main-belt Asteroid          SPK-ID: 2000125
Ephemeris | Orbit Diagram | Orbital Elements | Mission Design | Physical Parameters | Discovery Circumstances ]

[ hide orbit diagram ]

For accurate long-term ephemerides, please instead use our Horizons system.This orbit viewer was implemented using two-body methods, and hence should not be used for determining accurate long-term trajectories (over several years or decades) or planetary encounter circumstances.


[ revert to old Java-based viewer ]

Orbital Elements at Epoch 2458600.5 (2019-Apr-27.0) TDB
Reference: JPL 74 (heliocentric ecliptic J2000)
 Element Value Uncertainty (1-sigma)   Units 
e .07777621048597994 3.5793e-08  
a 2.744361969126038 9.5726e-09 au
q 2.530915894965573 9.8066e-08 au
i 4.663375922782148 4.3459e-06 deg
node 168.9922714562179 5.0131e-05 deg
peri 109.7857692844452 5.788e-05 deg
M 164.3277571481666 2.9368e-05 deg
tp 2457842.500459536027
(2017-Mar-30.00045954)
0.00013502 TDB
period 1660.582723836409
4.55
8.6884e-06
2.379e-08
d
yr
n .216791367772573 1.1343e-09 deg/d
Q 2.957808043286502 1.0317e-08 au
  Orbit Determination Parameters
   # obs. used (total)      3929  
   data-arc span      53527 days (146.55 yr)  
   first obs. used      1872-10-01  
   last obs. used      2019-04-21  
   planetary ephem.      DE431  
   SB-pert. ephem.      SB431-N16  
   condition code      0  
   norm. resid. RMS      .39527  
   source      ORB  
   producer      Otto Matic  
   solution date      2019-Jul-12 17:55:38  

Additional Information
 Earth MOID = 1.51881 au 
 Jupiter MOID = 2.13436 au 
 T_jup = 3.339 
[ show covariance matrix ]

Ephemeris | Orbit Diagram | Orbital Elements | Mission Design | Physical Parameters | Discovery Circumstances ]

Physical Parameter Table
Parameter Symbol Value Units Sigma Reference Notes
absolute magnitude H 9.04   n/a IRAS-A-FPA-3-RDR-IMPS-V6.0 IRAS observations used: 11
magnitude slope G 0.33   n/a PDS3 (MPC 17257) Fit
diameter diameter 48.418 km 0.533 urn:nasa:pds:neowise_diameters_albedos::2.0[mainbelt] (http://adsabs.harvard.edu/abs/2014ApJ...791..121M)  
rotation period rot_per 3.968 h n/a LCDB (Rev. 2019-January); Warner et al., 2009 Published Reference List:
[Tedesco, E.F. (1979) PhD Dissertation, New. Mex. State Univ. 280pp.]
[Zappala, V.; Debehogne, H.; Lagerkvist, C.-I.; Rickman, H. (1982) Astron. Astrophys. Suppl. Ser. 50, 23-26.]
[Lagerkvist, C.-I.; Hahn, G.; Magnusson, P.; Rickman, H.; Hammarback, G. (1986) in Asteroids, Comets, Meteors II. C.-I. Lagerkvist, B.A. Lindblad, M. Lundstedt, H. Rickman, Uppsala, eds. pp. 67-72.]
[Weidenschilling, S.J.; Chapman, C.R.; Davis, D.R.; Greenberg, R.; et al. (1987) Icarus 70, 191-245.]
[Drummond, J.D.; Weidenschilling, S.J.; Chapman, C.R.; Davis, D.R. (1988) Icarus 76, 19-77.]
[Magnusson, P. (1990) Icarus 85, 229-240.]
[Drummond, J.D.; Weidenschilling, S.J.; Chapman, C.R.; Davis, D.R. (1991) Icarus 89, 44-64.]
[Harris, A.W.; Young, J.W.; Dockweiler, T.; Gibson, J.; et al. (1992) Icarus 95, 115-147.]
[De Angelis, G. (1995) Planet. Space Sci. 43, 649-682.]
[Trigo-Rodriquez, J.M.; Caso, A.S. (2003) Minor Planet Bull. 30, 26-27.]
[Fauerbach, M.; Bennett, T. (2005) Minor Planet Bull. 32, 80-81.]
[Buchheim, R.K. (2006) Minor Planet Bull. 33, 63.]
[Durech, J.; Kaasalainen, M.; Marciniak, A.; et al. (2007) Astron. Astrophys. 465, 331-337.]
[Benishek, V.; Protitch-Benishek, V. (2008) Minor Planet Bull. 35, 28-30.]
[Proyecto ECLA (Silvia Alonso Perez) (2011) http://www.geocities.com/proyectoecla/]
geometric albedo albedo 0.182   0.036 urn:nasa:pds:neowise_diameters_albedos::2.0[mainbelt] (http://adsabs.harvard.edu/abs/2014ApJ...791..121M)  
B-V BV 0.705   0.029 EAR-A-5-DDR-UBV-MEAN-VALUES-V1.2 #obs=7; phase (min.=6.93, mean=13.48, max.=19.47) deg.
U-B UB 0.239   0.045 EAR-A-5-DDR-UBV-MEAN-VALUES-V1.2 #obs=3; phase (min.=2.09, mean=6.87, max.=11.33) deg.
Tholen spectral type spec_T M   n/a EAR-A-5-DDR-TAXONOMY-V4.0 used 7 color indices; used ground-based radiometric albedo
SMASSII spectral type spec_B X   n/a EAR-A-5-DDR-TAXONOMY-V4.0 based on a high-resolution spectrum by Xu et al. (1995) or Bus and Binzel (2002)

125 Liberatrix          Discovered 1872-Sep-11 by Henry, Prosper at Paris
In their cooperative program it will probably never be known which of the Henry brothers discovered which planet. With strict impartiality, these discoveries were announced as having been made alternatively by Prosper and by Paul.
Note: "planet" implies "minor planet"
Reference: DISCOVERY.DBLast Updated: 2003-08-29

Alternate Designations
 1943 FE = 1949 OE1 = 1949 SM = 1954 TD1 = A902 EG 
Ephemeris | Orbit Diagram | Orbital Elements | Mission Design | Physical Parameters | Discovery Circumstances ]
ABOUT SSD CREDITS/AWARDS PRIVACY/COPYRIGHT GLOSSARY LINKS
FirstGov 2019-Oct-16 23:38 UT
(server date/time)  
NASA Home Page
Site Manager:   Ryan S. Park
Webmaster  Alan B. Chamberlin